Location: Highland Meadows Observing Site
(48.4428°N, 114.5461°W)
Time: 10:56:17
(UTC-06:00)

Gurwin Techsat 1B - Visible Passes

Search period start: 27 August 2014 00:00
Search period end: 06 September 2014 00:00
Orbit: 812 x 815 km, 98.5° (Epoch: 25 August)

Date Brightness Start Highest point End Pass type
(mag) Time Alt. Az. Time Alt. Az. Time Alt. Az.
27 Aug 11.1 03:05:54 10° ENE 03:08:14 13° E 03:10:33 10° ESE visible
27 Aug 8.6 04:43:41 10° NNE 04:49:02 84° ESE 04:52:30 23° SSW visible
28 Aug 9.1 04:21:06 10° NNE 04:26:20 55° E 04:29:29 23° S visible
28 Aug 9.8 06:01:41 10° N 06:05:59 26° WNW 06:10:16 10° WSW visible
29 Aug 9.8 03:58:40 10° NNE 04:03:34 36° E 04:06:29 21° SSE visible
29 Aug 9.3 05:38:42 10° N 05:43:33 37° WNW 05:47:42 14° SW visible
30 Aug 10.5 03:36:27 10° NE 03:40:43 24° E 03:43:28 16° SE visible
30 Aug 8.8 05:15:50 10° N 05:21:02 55° WNW 05:24:41 19° SW visible
31 Aug 10.9 03:14:39 10° NE 03:17:47 16° E 03:20:27 11° ESE visible
31 Aug 8.5 04:53:06 10° NNE 04:58:26 83° WNW 05:01:40 25° SSW visible
01 Sep 8.9 04:30:28 10° NNE 04:35:46 66° ESE 04:38:39 27° S visible
01 Sep 10.0 06:11:18 10° N 06:15:17 22° WNW 06:19:16 10° WSW visible
02 Sep 9.5 04:07:58 10° NNE 04:13:02 43° E 04:15:38 26° SSE visible
02 Sep 9.5 05:48:14 10° N 05:52:52 32° WNW 05:56:51 13° WSW visible
03 Sep 10.2 03:45:38 10° NE 03:50:13 29° E 03:52:37 21° SE visible
03 Sep 9.0 05:25:19 10° N 05:30:23 46° WNW 05:33:50 20° SW visible
04 Sep 10.7 03:23:37 10° NE 03:27:20 19° E 03:29:36 15° ESE visible
04 Sep 8.6 05:02:32 10° N 05:07:50 69° WNW 05:10:49 26° SSW visible
05 Sep 11.1 03:02:21 10° ENE 03:04:21 12° E 03:06:21 10° ESE visible
05 Sep 8.6 04:39:51 10° NNE 04:45:12 79° ESE 04:47:48 31° S visible
05 Sep 10.2 06:20:57 10° NNW 06:24:34 19° WNW 06:28:10 10° W visible
